Wind_Speed
26 28 31 33 31 29 34 33 30 23 16 26 64 64 61 57 53 49 46 42 39 36 33 29 27 25 22
28 25 27 29 31 33 29 30 26 26 26 29 66 67 64 61 57 53 49 45 42 39 35 33 29 27 24
25 25 25 27 30 25 28 30 20 23 21 23 63 72 68 65 61 58 52 48 45 41 38 35 33 30 26
19 23 21 23 22 24 24 24 28 24 17 14 27 70 72 68 65 61 55 51 47 44 41 38 35 32 30
16 17 18 18 16 20 21 25 27 19 17 19 27 66 70 71 68 65 59 54 50 46 43 40 37 34 32
19 18 21 18 18 18 18 17 5 9 21 25 20 30 63 64 68 66 61 56 52 49 46 43 40 37 34
22 21 23 21 20 20 18 16 18 28 26 23 26 16 55 59 69 70 65 59 54 52 48 45 42 39 37
27 25 22 20 19 23 24 23 23 22 16 11 20 27 36 56 69 72 67 62 58 54 50 47 45 41 39
27 28 27 25 24 25 21 17 14 12 6 18 12 23 25 50 67 74 70 64 62 57 52 49 46 42 39
27 29 29 29 25 25 22 22 13 7 8 7 8 2 8 40 58 66 70 67 63 60 55 51 48 45 43
25 27 27 28 29 27 26 19 17 18 16 9 7 4 8 9 47 57 58 58 64 62 60 54 52 50 49
25 24 23 24 25 27 26 28 27 30 25 21 11 9 8 11 27 47 51 53 54 55 58 58 54 50 49
22 21 24 26 29 26 27 26 26 29 33 37 32 25 20 11 11 38 46 50 52 51 50 52 55 52 45
22 23 22 23 23 24 23 22 21 22 30 27 27 26 26 25 22 21 50 32 51 52 49 48 50 50 48
21 21 21 20 23 24 23 22 21 19 21 26 25 26 29 30 23 30 49 43 53 51 49 44 44 48 47
23 23 22 20 22 23 25 22 20 20 20 20 17 13 17 27 35 28 45 45 52 51 49 42 40 45 45
23 22 23 22 21 22 21 21 20 22 23 21 17 14 5 6 16 35 46 47 49 47 48 48 43 45 49
Wind_Direction
289 300 306 312 319 319 317 314 303 306 261 302 187 186 187 185 183 185 185 186 182 180 174 171 171 171 166
289 296 299 308 311 316 317 316 307 303 303 278 192 188 187 185 184 185 188 187 183 181 177 175 175 169 166
284 293 295 304 308 312 315 319 313 302 286 290 187 187 187 187 185 185 188 188 184 181 178 178 176 171 169
277 287 292 299 302 308 314 316 310 308 294 300 216 188 187 188 186 186 186 189 185 182 180 179 178 176 171
272 279 284 292 295 307 305 317 317 322 318 307 309 184 185 189 187 186 185 188 186 184 182 181 179 179 173
258 259 270 276 287 292 306 316 316 305 344 287 302 233 179 181 186 186 183 186 187 185 185 182 181 180 177
259 252 259 262 269 278 285 287 290 299 316 301 266 274 179 179 186 186 184 184 187 186 186 184 184 182 180
262 268 269 274 267 266 273 277 281 286 286 265 277 275 201 176 187 186 185 184 186 187 187 187 186 184 183
257 260 262 264 264 264 267 253 275 283 272 259 273 276 213 172 183 187 186 184 185 189 188 190 189 186 185
256 260 260 260 260 259 255 259 232 279 259 244 273 321 265 177 178 182 186 187 187 188 191 193 191 185 184
254 255 254 256 260 257 253 243 236 238 244 300 312 338 334 201 175 178 180 182 184 187 190 194 195 190 184
242 244 243 243 247 253 254 257 254 250 253 263 272 311 311 303 176 172 179 179 179 181 186 194 197 197 195
248 249 240 242 250 245 252 256 258 258 256 257 261 269 272 263 295 176 173 179 179 179 183 185 189 195 187
242 249 253 247 239 236 235 237 243 245 253 247 247 251 259 257 258 251 177 175 178 178 180 184 188 191 192
238 241 240 238 238 232 228 232 238 234 236 243 244 251 251 252 252 259 180 174 177 175 176 180 186 190 192
239 238 239 239 238 234 227 226 235 229 232 234 241 250 247 258 249 239 180 170 175 175 177 176 181 190 194
235 236 233 234 239 231 221 224 230 237 239 228 227 221 230 258 260 218 179 169 168 172 179 182 183 187 191
Height
782 778 774 772 769 768 764 760 757 751 752 754 748 763 775 784 791 803 813 820 829 835 840 846 852 856 860
779 778 774 771 765 762 760 757 754 751 748 743 743 754 766 775 784 796 809 817 824 831 837 842 849 854 858
774 773 771 768 763 759 756 751 751 745 741 734 735 744 756 767 776 788 802 812 819 827 833 840 846 852 856
773 769 768 766 764 758 753 752 748 743 741 738 741 736 748 761 768 781 794 805 814 823 829 836 844 850 854
769 768 765 764 762 757 754 749 744 739 732 731 736 728 739 752 762 773 785 798 809 818 825 832 840 848 852
762 762 760 761 759 756 754 751 746 739 735 730 736 729 726 742 754 768 777 791 803 812 821 827 835 843 850
754 755 754 754 756 753 752 751 749 743 742 729 730 726 721 733 746 759 770 781 796 806 816 822 831 838 846
748 748 749 749 750 749 747 746 747 745 743 734 723 723 723 723 739 750 764 773 788 801 810 819 827 834 841
740 740 741 741 744 745 743 741 738 735 732 732 724 724 719 714 732 744 757 766 779 795 805 815 823 831 839
730 731 732 733 735 737 739 738 735 734 731 731 724 725 716 712 723 739 751 761 772 786 800 811 820 825 833
722 722 723 724 726 728 729 731 729 730 727 724 725 720 724 713 715 729 743 758 767 780 793 804 814 816 822
713 713 714 716 717 719 719 720 722 723 723 721 723 721 725 722 710 720 736 749 761 772 785 798 808 814 818
705 704 706 708 710 711 711 712 714 713 714 715 717 718 721 722 719 713 728 739 751 762 776 787 796 805 812
698 698 700 701 704 706 704 706 707 706 706 705 710 712 714 715 718 716 713 721 739 753 766 779 789 795 802
691 692 693 694 695 699 700 700 701 702 700 699 701 704 705 708 710 706 703 715 730 742 756 767 778 785 794
683 685 686 687 687 689 694 694 694 695 695 696 694 695 697 695 697 696 697 703 720 733 746 756 768 778 786
674 677 678 680 680 679 681 685 688 686 686 684 683 687 690 688 681 682 684 693 709 723 734 742 754 765 774